• In Hungary
  • List of Countries
  • For 7 days
  • Water Temperature
  • Satellite Maps
  • Weather Map
  • News
  • Weather Widgets
  • user-avatar
    Login

    Hourly Weather Tulsa

    Today, 14 December, Thursday

    Time Temperature Precipitation Wind Pressure Humidity
    00:00 +7°C° 0 mm 4 mps 741 mmHg 45%
    01:00 +6°C° 0 mm 4 mps 742 mmHg 47%
    02:00 +6°C° 0 mm 4 mps 742 mmHg 50%
    03:00 +5°C° 0 mm 4 mps 742 mmHg 52%
    04:00 +5°C° 0 mm 4 mps 743 mmHg 55%
    05:00 +4°C° 0 mm 4 mps 743 mmHg 58%
    06:00 +4°C° 0 mm 3 mps 744 mmHg 60%
    07:00 +4°C° 0 mm 3 mps 744 mmHg 59%
    08:00 +4°C° 0 mm 3 mps 745 mmHg 58%
    09:00 +4°C° 0 mm 3 mps 745 mmHg 57%
    10:00 +5°C° 0 mm 3 mps 745 mmHg 54%
    11:00 +7°C° 0 mm 3 mps 746 mmHg 51%
    12:00 +8°C° 0 mm 3 mps 746 mmHg 47%
    13:00 +7°C° 0 mm 4 mps 746 mmHg 46%
    14:00 +8°C° 0 mm 4 mps 745 mmHg 44%
    15:00 +8°C° 0 mm 4 mps 745 mmHg 42%
    16:00 +8°C° 0 mm 3 mps 745 mmHg 46%
    17:00 +7°C° 0 mm 2 mps 745 mmHg 49%
    18:00 +7°C° 0 mm 1 mps 745 mmHg 52%
    19:00 +7°C° 0 mm 1 mps 746 mmHg 54%
    20:00 +6°C° 0 mm 1 mps 746 mmHg 55%
    21:00 +5°C° 0 mm 0 mps 746 mmHg 56%
    22:00 +5°C° 0 mm 0 mps 746 mmHg 57%
    23:00 +6°C° 0 mm 1 mps 747 mmHg 58%

    Tomorrow, 15 December, Friday

    Time Temperature Precipitation Wind Pressure Humidity
    00:00 +5°C° 0 mm 1 mps 747 mmHg 58%
    01:00 +5°C° 0 mm 1 mps 747 mmHg 60%
    02:00 +4°C° 0 mm 2 mps 747 mmHg 62%
    03:00 +4°C° 0 mm 2 mps 748 mmHg 64%
    04:00 +3°C° 0 mm 2 mps 748 mmHg 68%
    05:00 +2°C° 0 mm 3 mps 748 mmHg 71%
    06:00 +1°C° 0 mm 3 mps 748 mmHg 74%
    07:00 +2°C° 0 mm 3 mps 749 mmHg 73%
    08:00 +3°C° 0 mm 3 mps 749 mmHg 73%
    09:00 +3°C° 0 mm 3 mps 749 mmHg 72%
    10:00 +5°C° 0 mm 3 mps 749 mmHg 63%
    11:00 +7°C° 0 mm 3 mps 749 mmHg 54%
    12:00 +9°C° 0 mm 3 mps 749 mmHg 45%
    13:00 +9°C° 0 mm 3 mps 748 mmHg 42%
    14:00 +10°C° 0 mm 3 mps 748 mmHg 39%
    15:00 +10°C° 0 mm 3 mps 747 mmHg 36%
    16:00 +9°C° 0 mm 3 mps 747 mmHg 40%
    17:00 +8°C° 0 mm 3 mps 747 mmHg 43%
    18:00 +5°C° 0 mm 3 mps 746 mmHg 47%
    19:00 +5°C° 0 mm 3 mps 746 mmHg 47%
    20:00 +5°C° 0 mm 4 mps 746 mmHg 47%
    21:00 +5°C° 0 mm 4 mps 746 mmHg 48%
    22:00 +5°C° 0 mm 4 mps 746 mmHg 47%
    23:00 +3°C° 0 mm 5 mps 746 mmHg 47%

    Day after tomorrow, 16 December, Saturday

    Time Temperature Precipitation Wind Pressure Humidity
    00:00 +3°C° 0 mm 5 mps 746 mmHg 47%
    01:00 +3°C° 0 mm 5 mps 745 mmHg 47%
    02:00 +3°C° 0 mm 5 mps 745 mmHg 47%
    03:00 +3°C° 0 mm 5 mps 745 mmHg 48%
    04:00 +3°C° 0 mm 5 mps 744 mmHg 48%
    05:00 +3°C° 0 mm 5 mps 744 mmHg 49%
    06:00 +3°C° 0 mm 6 mps 743 mmHg 49%
    07:00 +3°C° 0 mm 6 mps 743 mmHg 48%
    08:00 +4°C° 0 mm 6 mps 743 mmHg 47%
    09:00 +4°C° 0 mm 7 mps 744 mmHg 45%
    10:00 +8°C° 0 mm 7 mps 743 mmHg 41%
    11:00 +10°C° 0 mm 8 mps 743 mmHg 37%
    12:00 +12°C° 0 mm 8 mps 743 mmHg 33%
    13:00 +12°C° 0 mm 8 mps 742 mmHg 32%
    14:00 +13°C° 0 mm 8 mps 742 mmHg 31%
    15:00 +13°C° 0 mm 8 mps 741 mmHg 30%
    16:00 +12°C° 0 mm 7 mps 741 mmHg 34%
    17:00 +11°C° 0 mm 6 mps 741 mmHg 37%
    18:00 +9°C° 0 mm 6 mps 741 mmHg 40%
    19:00 +9°C° 0 mm 6 mps 741 mmHg 42%
    20:00 +9°C° 0 mm 5 mps 742 mmHg 44%
    21:00 +9°C° 0 mm 5 mps 742 mmHg 46%
    22:00 +9°C° 0.1 mm 5 mps 742 mmHg 53%
    23:00 +8°C° 0.1 mm 5 mps 742 mmHg 60%

    17 December, Sunday

    Time Temperature Precipitation Wind Pressure Humidity
    00:00 +8°C° 0.1 mm 6 mps 742 mmHg 67%
    01:00 +8°C° 0.8 mm 6 mps 742 mmHg 74%
    02:00 +7°C° 0.8 mm 6 mps 742 mmHg 80%
    03:00 +7°C° 0.8 mm 5 mps 741 mmHg 86%
    04:00 +7°C° 0.9 mm 5 mps 741 mmHg 88%
    05:00 +7°C° 0.9 mm 5 mps 741 mmHg 89%
    06:00 +7°C° 0.9 mm 4 mps 741 mmHg 90%
    07:00 +8°C° 0 mm 4 mps 742 mmHg 89%
    08:00 +8°C° 0 mm 4 mps 742 mmHg 88%
    09:00 +8°C° 0 mm 4 mps 743 mmHg 86%
    10:00 +10°C° 0 mm 4 mps 743 mmHg 84%
    11:00 +11°C° 0 mm 4 mps 743 mmHg 82%
    12:00 +11°C° 0 mm 4 mps 743 mmHg 79%
    13:00 +11°C° 0 mm 3 mps 742 mmHg 79%
    14:00 +11°C° 0 mm 3 mps 742 mmHg 80%
    15:00 +11°C° 0 mm 3 mps 741 mmHg 80%
    16:00 +12°C° 0 mm 2 mps 742 mmHg 82%
    17:00 +12°C° 0 mm 2 mps 742 mmHg 84%
    18:00 +12°C° 0 mm 2 mps 742 mmHg 86%
    19:00 +12°C° 0 mm 2 mps 743 mmHg 87%
    20:00 +12°C° 0 mm 2 mps 743 mmHg 87%
    21:00 +12°C° 0 mm 1 mps 743 mmHg 88%
    22:00 +10°C° 0 mm 2 mps 743 mmHg 89%
    23:00 +10°C° 0 mm 2 mps 743 mmHg 90%

    18 December, Monday

    Time Temperature Precipitation Wind Pressure Humidity
    00:00 +10°C° 0 mm 2 mps 744 mmHg 91%
    01:00 +10°C° 0 mm 2 mps 743 mmHg 93%
    02:00 +9°C° 0 mm 2 mps 743 mmHg 94%
    03:00 +9°C° 0 mm 2 mps 743 mmHg 96%
    04:00 +9°C° 0 mm 2 mps 743 mmHg 96%
    05:00 +9°C° 0 mm 2 mps 743 mmHg 96%
    06:00 +11°C° 0 mm 1 mps 743 mmHg 97%
    07:00 +11°C° 0 mm 1 mps 743 mmHg 96%
    08:00 +10°C° 0 mm 2 mps 744 mmHg 95%
    09:00 +12°C° 0 mm 2 mps 744 mmHg 94%
    10:00 +12°C° 0 mm 2 mps 744 mmHg 90%
    11:00 +12°C° 0 mm 3 mps 744 mmHg 86%
    12:00 +13°C° 0 mm 3 mps 744 mmHg 82%
    13:00 +13°C° 0.1 mm 3 mps 743 mmHg 82%
    14:00 +13°C° 0.1 mm 3 mps 742 mmHg 81%
    15:00 +14°C° 0.1 mm 2 mps 742 mmHg 81%
    16:00 +13°C° 0 mm 2 mps 742 mmHg 81%
    17:00 +13°C° 0 mm 2 mps 742 mmHg 81%
    18:00 +12°C° 0 mm 2 mps 742 mmHg 81%
    19:00 +12°C° 0 mm 2 mps 742 mmHg 81%
    20:00 +12°C° 0 mm 2 mps 743 mmHg 80%
    21:00 +10°C° 0 mm 2 mps 743 mmHg 79%
    22:00 +10°C° 0 mm 3 mps 743 mmHg 81%
    23:00 +9°C° 0 mm 3 mps 743 mmHg 83%

    19 December, Tuesday

    Time Temperature Precipitation Wind Pressure Humidity
    00:00 +8°C° 0 mm 3 mps 743 mmHg 85%
    01:00 +8°C° 0 mm 3 mps 743 mmHg 83%
    02:00 +7°C° 0 mm 3 mps 743 mmHg 82%
    03:00 +7°C° 0 mm 3 mps 743 mmHg 80%
    04:00 +5°C° 0 mm 3 mps 744 mmHg 77%
    05:00 +5°C° 0 mm 3 mps 744 mmHg 74%
    06:00 +4°C° 0 mm 3 mps 744 mmHg 71%
    07:00 +5°C° 0 mm 3 mps 745 mmHg 67%
    08:00 +6°C° 0 mm 4 mps 746 mmHg 63%
    09:00 +6°C° 0 mm 4 mps 747 mmHg 59%
    10:00 +8°C° 0 mm 4 mps 747 mmHg 54%
    11:00 +11°C° 0 mm 4 mps 747 mmHg 49%
    12:00 +13°C° 0 mm 4 mps 748 mmHg 44%
    13:00 +13°C° 0 mm 3 mps 748 mmHg 43%
    14:00 +14°C° 0 mm 3 mps 747 mmHg 42%
    15:00 +15°C° 0 mm 2 mps 747 mmHg 41%
    16:00 +14°C° 0 mm 2 mps 748 mmHg 46%
    17:00 +13°C° 0 mm 1 mps 748 mmHg 50%
    18:00 +11°C° 0 mm 1 mps 748 mmHg 55%
    19:00 +11°C° 0 mm 1 mps 749 mmHg 56%
    20:00 +10°C° 0 mm 1 mps 749 mmHg 58%
    21:00 +10°C° 0 mm 1 mps 750 mmHg 60%
    22:00 +9°C° 0 mm 1 mps 750 mmHg 61%
    23:00 +9°C° 0 mm 1 mps 750 mmHg 62%
    Show more